| time (UTC) | temp C | wind direction | speed KPH | gust KPH | rain 1hr cm | rain 24hr cm | rain mn cm | humidity % | barometer mb |
| 20260903161803 | 33 | 216 | 8.0 | 16.1 | 0.00 | 0.00 | 0.00 | 40 | 1015.6 |
| 20260903161303 | 32 | 245 | 6.4 | 17.7 | 0.00 | 0.00 | 0.00 | 40 | 1015.5 |
| 20260903161141 | 32 | 231 | 8.0 | 20.9 | 0.00 | 0.00 | 0.00 | 39 | 1015.6 |
| 20260903160304 | 32 | 275 | 11.3 | 20.9 | 0.00 | 0.00 | 0.00 | 40 | 1015.7 |
| 20260903155803 | 32 | 196 | 6.4 | 24.1 | 0.00 | 0.00 | 0.00 | 43 | 1015.7 |
| 20260903155306 | 31 | 212 | 8.0 | 24.1 | 0.00 | 0.00 | 0.00 | 42 | 1015.7 |
| 20260903154802 | 31 | 217 | 11.3 | 20.9 | 0.00 | 0.00 | 0.00 | 43 | 1015.7 |
| 20260903154302 | 31 | 226 | 6.4 | 16.1 | 0.00 | 0.00 | 0.00 | 44 | 1015.6 |
| 20260903153804 | 30 | 220 | 9.7 | 16.1 | 0.00 | 0.00 | 0.00 | 46 | 1015.6 |
| 20260903153303 | 30 | 226 | 8.0 | 19.3 | 0.00 | 0.00 | 0.00 | 46 | 1015.7 |
| 20260903152801 | 29 | 265 | 8.0 | 20.9 | 0.00 | 0.00 | 0.00 | 45 | 1015.7 |
| 20260903152306 | 29 | 243 | 6.4 | 20.9 | 0.00 | 0.00 | 0.00 | 47 | 1015.7 |
| 20260903151802 | 28 | 199 | 9.7 | 20.9 | 0.00 | 0.00 | 0.00 | 47 | 1015.7 |
| 20260903151303 | 28 | 255 | 9.7 | 20.9 | 0.00 | 0.00 | 0.00 | 48 | 1015.7 |
| 20260903150806 | 28 | 135 | 6.4 | 17.7 | 0.00 | 0.00 | 0.00 | 51 | 1015.8 |
| 20260903150301 | 27 | 197 | 8.0 | 17.7 | 0.00 | 0.00 | 0.00 | 49 | 1015.8 |
| 20260903145804 | 27 | 216 | 6.4 | 17.7 | 0.00 | 0.00 | 0.00 | 52 | 1015.9 |
| 20260903145305 | 26 | 238 | 9.7 | 17.7 | 0.00 | 0.00 | 0.00 | 51 | 1015.8 |
| 20260903144803 | 26 | 212 | 4.8 | 11.3 | 0.00 | 0.00 | 0.00 | 53 | 1015.8 |
| 20260903144303 | 25 | 230 | 6.4 | 17.7 | 0.00 | 0.00 | 0.00 | 54 | 1015.8 |
| 20260903143803 | 25 | 186 | 4.8 | 17.7 | 0.00 | 0.00 | 0.00 | 55 | 1015.8 |
| 20260903143303 | 25 | 227 | 4.8 | 16.1 | 0.00 | 0.00 | 0.00 | 54 | 1015.8 |
| 20260903142803 | 25 | 193 | 6.4 | 11.3 | 0.00 | 0.00 | 0.00 | 56 | 1015.8 |
| 20260903142305 | 24 | 178 | 6.4 | 11.3 | 0.00 | 0.00 | 0.00 | 56 | 1015.7 |
| 20260903141803 | 23 | 183 | 6.4 | 11.3 | 0.00 | 0.00 | 0.00 | 57 | 1015.7 |
| 20260903141301 | 23 | 179 | 4.8 | 11.3 | 0.00 | 0.00 | 0.00 | 58 | 1015.7 |
| 20260903140804 | 23 | 216 | 6.4 | 11.3 | 0.00 | 0.00 | 0.00 | 59 | 1015.7 |
| 20260903140303 | 23 | 213 | 4.8 | 8.0 | 0.00 | 0.00 | 0.00 | 59 | 1015.8 |
| 20260903135809 | 22 | 103 | 4.8 | 8.0 | 0.00 | 0.00 | 0.00 | 58 | 1015.8 |
| 20260903135306 | 22 | 164 | 3.2 | 9.7 | 0.00 | 0.00 | 0.00 | 59 | 1015.8 |
| 20260903134803 | 22 | 149 | 4.8 | 9.7 | 0.00 | 0.00 | 0.00 | 59 | 1015.8 |
| 20260903134302 | 22 | 131 | 4.8 | 11.3 | 0.00 | 0.00 | 0.00 | 59 | 1015.8 |
| 20260903133802 | 22 | 172 | 6.4 | 11.3 | 0.00 | 0.00 | 0.00 | 59 | 1015.9 |
| 20260903133304 | 22 | 247 | 4.8 | 9.7 | 0.00 | 0.00 | 0.00 | 59 | 1015.8 |
| 20260903133136 | 22 | 182 | 3.2 | 9.7 | 0.00 | 0.00 | 0.00 | 59 | 1015.8 |
| 20260903132652 | 22 | 141 | 6.4 | 9.7 | 0.00 | 0.00 | 0.00 | 60 | 1015.7 |
| 20260903131803 | 22 | 180 | 4.8 | 9.7 | 0.00 | 0.00 | 0.00 | 60 | 1015.6 |
| 20260903131303 | 21 | 158 | 3.2 | 8.0 | 0.00 | 0.00 | 0.00 | 60 | 1015.6 |
| 20260903131150 | 21 | 107 | 4.8 | 8.0 | 0.00 | 0.00 | 0.00 | 59 | 1015.6 |
| 20260903130302 | 21 | 147 | 3.2 | 8.0 | 0.00 | 0.00 | 0.00 | 59 | 1015.6 |
| 20260903130147 | 21 | 134 | 3.2 | 8.0 | 0.00 | 0.00 | 0.00 | 59 | 1015.6 |
| 20260903125531 | 21 | 186 | 3.2 | 8.0 | 0.00 | 0.00 | 0.00 | 59 | 1015.5 |
| 20260903125310 | 21 | 186 | 3.2 | 8.0 | 0.00 | 0.00 | 0.00 | 59 | 1015.5 |
| 20260903124802 | 21 | 128 | 3.2 | 8.0 | 0.00 | 0.00 | 0.00 | 59 | 1015.4 |
| 20260903124303 | 21 | 158 | 4.8 | 8.0 | 0.00 | 0.00 | 0.00 | 59 | 1015.4 |
| 20260903123802 | 21 | 189 | 4.8 | 9.7 | 0.00 | 0.00 | 0.00 | 60 | 1015.4 |
| 20260903123307 | 21 | 166 | 4.8 | 9.7 | 0.00 | 0.00 | 0.00 | 59 | 1015.4 |
| 20260903122803 | 21 | 151 | 3.2 | 9.7 | 0.00 | 0.00 | 0.00 | 59 | 1015.4 |
| 20260903122305 | 21 | 158 | 3.2 | 9.7 | 0.00 | 0.00 | 0.00 | 59 | 1015.2 |
| 20260903121803 | 21 | 157 | 6.4 | 9.7 | 0.00 | 0.00 | 0.00 | 59 | 1015.2 |
| 20260903121301 | 21 | 183 | 3.2 | 9.7 | 0.00 | 0.00 | 0.00 | 59 | 1015.2 |
| 20260903121133 | 21 | 158 | 4.8 | 8.0 | 0.00 | 0.00 | 0.00 | 59 | 1015.3 |
| 20260903120303 | 21 | 109 | 3.2 | 8.0 | 0.00 | 0.00 | 0.00 | 58 | 1015.2 |
| 20260903115802 | 21 | 154 | 4.8 | 11.3 | 0.00 | 0.00 | 0.00 | 58 | 1015.2 |
| 20260903115305 | 21 | 147 | 3.2 | 11.3 | 0.00 | 0.00 | 0.00 | 58 | 1015.2 |
| 20260903114810 | 21 | 195 | 6.4 | 9.7 | 0.00 | 0.00 | 0.00 | 58 | 1015.2 |
| 20260903114304 | 21 | 110 | 4.8 | 9.7 | 0.00 | 0.00 | 0.00 | 57 | 1015.3 |
| 20260903113803 | 21 | 189 | 3.2 | 9.7 | 0.00 | 0.00 | 0.00 | 57 | 1015.2 |
| 20260903113302 | 21 | 213 | 4.8 | 14.5 | 0.00 | 0.00 | 0.00 | 58 | 1015.2 |
| 20260903112825 | 21 | 182 | 6.4 | 14.5 | 0.00 | 0.00 | 0.00 | 59 | 1015.2 |
| 20260903112417 | 21 | 173 | 4.8 | 9.7 | 0.00 | 0.00 | 0.00 | 59 | 1015.1 |
| 20260903111303 | 21 | 204 | 4.8 | 11.3 | 0.00 | 0.00 | 0.00 | 59 | 1015.2 |
| 20260903110802 | 21 | 133 | 4.8 | 11.3 | 0.00 | 0.00 | 0.00 | 58 | 1015.3 |
| 20260903110302 | 21 | 140 | 1.6 | 11.3 | 0.00 | 0.00 | 0.00 | 58 | 1015.3 |
| 20260903105801 | 21 | 138 | 4.8 | 14.5 | 0.00 | 0.00 | 0.00 | 59 | 1015.3 |
| 20260903105301 | 21 | 196 | 4.8 | 14.5 | 0.00 | 0.00 | 0.00 | 60 | 1015.2 |
| 20260903104803 | 21 | 185 | 3.2 | 9.7 | 0.00 | 0.00 | 0.00 | 61 | 1015.3 |
| 20260903104302 | 21 | 121 | 4.8 | 11.3 | 0.00 | 0.00 | 0.00 | 61 | 1015.4 |
| 20260903104128 | 21 | 155 | 6.4 | 11.3 | 0.00 | 0.00 | 0.00 | 61 | 1015.3 |
| 20260903103304 | 21 | 92 | 3.2 | 14.5 | 0.00 | 0.00 | 0.00 | 61 | 1015.3 |
| 20260903102804 | 21 | 118 | 6.4 | 14.5 | 0.00 | 0.00 | 0.00 | 59 | 1015.4 |
| 20260903102305 | 22 | 110 | 4.8 | 14.5 | 0.00 | 0.00 | 0.00 | 56 | 1015.4 |
| 20260903101802 | 22 | 104 | 4.8 | 19.3 | 0.00 | 0.00 | 0.00 | 55 | 1015.4 |
| 20260903101632 | 22 | 147 | 8.0 | 19.3 | 0.00 | 0.00 | 0.00 | 55 | 1015.3 |
| 20260903100804 | 22 | 185 | 6.4 | 16.1 | 0.00 | 0.00 | 0.00 | 56 | 1015.3 |
| 20260903100511 | 22 | 152 | 8.0 | 16.1 | 0.00 | 0.00 | 0.00 | 57 | 1015.4 |
| 20260903100421 | 22 | 171 | 8.0 | 16.1 | 0.00 | 0.00 | 0.00 | 56 | 1015.3 |
| 20260903095520 | 22 | 192 | 6.4 | 9.7 | 0.00 | 0.00 | 0.00 | 59 | 1015.5 |
| 20260903095424 | 22 | 154 | 6.4 | 11.3 | 0.00 | 0.00 | 0.00 | 57 | 1015.4 |
| 20260903094629 | 22 | 217 | 4.8 | 9.7 | 0.00 | 0.00 | 0.00 | 59 | 1015.5 |
| 20260903093803 | 22 | 165 | 4.8 | 11.3 | 0.00 | 0.00 | 0.00 | 58 | 1015.6 |
| 20260903093540 | 22 | 123 | 4.8 | 11.3 | 0.00 | 0.00 | 0.00 | 58 | 1015.6 |
| 20260903093133 | 22 | 142 | 6.4 | 11.3 | 0.00 | 0.00 | 0.00 | 57 | 1015.7 |
| 20260903092306 | 22 | 185 | 3.2 | 11.3 | 0.00 | 0.00 | 0.00 | 56 | 1015.6 |
| 20260903092106 | 22 | 109 | 6.4 | 11.3 | 0.00 | 0.00 | 0.00 | 56 | 1015.6 |
| 20260903091303 | 22 | 86 | 6.4 | 16.1 | 0.00 | 0.00 | 0.00 | 56 | 1015.6 |
| 20260903091127 | 22 | 178 | 8.0 | 16.1 | 0.00 | 0.00 | 0.00 | 56 | 1015.5 |
| 20260903090302 | 23 | 247 | 6.4 | 14.5 | 0.00 | 0.00 | 0.00 | 55 | 1015.6 |
| 20260903085806 | 23 | 140 | 4.8 | 14.5 | 0.00 | 0.00 | 0.00 | 55 | 1015.6 |
| 20260903085305 | 23 | 171 | 8.0 | 14.5 | 0.00 | 0.00 | 0.00 | 54 | 1015.7 |
| 20260903084803 | 23 | 171 | 4.8 | 11.3 | 0.00 | 0.00 | 0.00 | 54 | 1015.7 |
| 20260903084302 | 23 | 186 | 4.8 | 14.5 | 0.00 | 0.00 | 0.00 | 53 | 1015.7 |
| 20260903083802 | 23 | 147 | 6.4 | 16.1 | 0.00 | 0.00 | 0.00 | 53 | 1015.8 |
| 20260903083304 | 23 | 149 | 4.8 | 16.1 | 0.00 | 0.00 | 0.00 | 52 | 1015.7 |
| 20260903082802 | 23 | 123 | 6.4 | 16.1 | 0.00 | 0.00 | 0.00 | 52 | 1015.6 |
| 20260903082306 | 23 | 134 | 6.4 | 16.1 | 0.00 | 0.00 | 0.00 | 52 | 1015.6 |
| 20260903081802 | 24 | 140 | 8.0 | 14.5 | 0.00 | 0.00 | 0.00 | 51 | 1015.6 |
| 20260903081336 | 24 | 154 | 6.4 | 16.1 | 0.00 | 0.00 | 0.00 | 50 | 1015.7 |
| 20260903081327 | 24 | 147 | 4.8 | 14.5 | 0.00 | 0.00 | 0.00 | 50 | 1015.7 |
| 20260903081315 | 24 | 114 | 4.8 | 11.3 | 0.00 | 0.00 | 0.00 | 50 | 1015.6 |
| 20260903075802 | 24 | 131 | 8.0 | 16.1 | 0.00 | 0.00 | 0.00 | 49 | 1015.7 |
| 20260903075310 | 24 | 124 | 6.4 | 17.7 | 0.00 | 0.00 | 0.00 | 49 | 1015.8 |
| 20260903074803 | 24 | 148 | 6.4 | 17.7 | 0.00 | 0.00 | 0.00 | 49 | 1015.7 |
| 20260903074302 | 24 | 159 | 6.4 | 16.1 | 0.00 | 0.00 | 0.00 | 49 | 1015.7 |
| 20260903073802 | 24 | 138 | 6.4 | 16.1 | 0.00 | 0.00 | 0.00 | 50 | 1015.7 |
| 20260903073302 | 24 | 152 | 6.4 | 17.7 | 0.00 | 0.00 | 0.00 | 51 | 1015.7 |
| 20260903072802 | 24 | 138 | 4.8 | 17.7 | 0.00 | 0.00 | 0.00 | 51 | 1015.6 |
| 20260903072626 | 23 | 162 | 6.4 | 14.5 | 0.00 | 0.00 | 0.00 | 51 | 1015.7 |
| 20260903071803 | 24 | 142 | 6.4 | 16.1 | 0.00 | 0.00 | 0.00 | 51 | 1015.7 |
| 20260903071307 | 23 | 145 | 6.4 | 17.7 | 0.00 | 0.00 | 0.00 | 51 | 1015.7 |
| 20260903070803 | 24 | 234 | 8.0 | 17.7 | 0.00 | 0.00 | 0.00 | 51 | 1015.7 |
| 20260903070302 | 24 | 123 | 6.4 | 14.5 | 0.00 | 0.00 | 0.00 | 51 | 1015.6 |
| 20260903065803 | 24 | 128 | 3.2 | 14.5 | 0.00 | 0.00 | 0.00 | 51 | 1015.7 |
| 20260903065415 | 24 | 154 | 4.8 | 14.5 | 0.00 | 0.00 | 0.00 | 50 | 1015.7 |
| 20260903065341 | 24 | 137 | 4.8 | 14.5 | 0.00 | 0.00 | 0.00 | 51 | 1015.7 |
| 20260903064814 | 24 | 154 | 4.8 | 14.5 | 0.00 | 0.00 | 0.00 | 50 | 1015.7 |
| 20260903064302 | 24 | 152 | 6.4 | 14.5 | 0.00 | 0.00 | 0.00 | 50 | 1015.7 |
| 20260903064128 | 25 | 142 | 3.2 | 14.5 | 0.00 | 0.00 | 0.00 | 50 | 1015.7 |
| 20260903063307 | 24 | 109 | 8.0 | 16.1 | 0.00 | 0.00 | 0.00 | 50 | 1015.6 |
| 20260903063133 | 24 | 192 | 6.4 | 16.1 | 0.00 | 0.00 | 0.00 | 51 | 1015.7 |
| 20260903062306 | 24 | 104 | 8.0 | 16.1 | 0.00 | 0.00 | 0.00 | 51 | 1015.7 |
| 20260903061801 | 24 | 123 | 6.4 | 16.1 | 0.00 | 0.00 | 0.00 | 51 | 1015.7 |
| 20260903061301 | 25 | 180 | 6.4 | 14.5 | 0.00 | 0.00 | 0.00 | 51 | 1015.6 |
| 20260903060803 | 25 | 151 | 4.8 | 14.5 | 0.00 | 0.00 | 0.00 | 51 | 1015.6 |
| 20260903060301 | 25 | 165 | 6.4 | 16.1 | 0.00 | 0.00 | 0.00 | 51 | 1015.6 |
| 20260903055804 | 25 | 114 | 6.4 | 16.1 | 0.00 | 0.00 | 0.00 | 51 | 1015.6 |
| 20260903055301 | 25 | 186 | 6.4 | 16.1 | 0.00 | 0.00 | 0.00 | 51 | 1015.6 |
| 20260903054802 | 25 | 140 | 4.8 | 16.1 | 0.00 | 0.00 | 0.00 | 51 | 1015.5 |
| 20260903054300 | 25 | 202 | 8.0 | 14.5 | 0.00 | 0.00 | 0.00 | 52 | 1015.6 |
| 20260903053819 | 25 | 200 | 8.0 | 14.5 | 0.00 | 0.00 | 0.00 | 51 | 1015.5 |
| 20260903053810 | 25 | 158 | 6.4 | 14.5 | 0.00 | 0.00 | 0.00 | 51 | 1015.5 |
| 20260903053803 | 25 | 193 | 6.4 | 14.5 | 0.00 | 0.00 | 0.00 | 51 | 1015.5 |
| 20260903052324 | 26 | 183 | 6.4 | 16.1 | 0.00 | 0.00 | 0.00 | 50 | 1015.5 |
| 20260903052317 | 26 | 144 | 6.4 | 14.5 | 0.00 | 0.00 | 0.00 | 50 | 1015.4 |
| 20260903052308 | 25 | 173 | 6.4 | 14.5 | 0.00 | 0.00 | 0.00 | 51 | 1015.4 |
| 20260903050802 | 26 | 175 | 6.4 | 16.1 | 0.00 | 0.00 | 0.00 | 51 | 1015.4 |
| 20260903050300 | 26 | 192 | 3.2 | 9.7 | 0.00 | 0.00 | 0.00 | 50 | 1015.4 |
| 20260903045801 | 26 | 123 | 6.4 | 14.5 | 0.00 | 0.00 | 0.00 | 49 | 1015.4 |
| 20260903045301 | 26 | 151 | 4.8 | 14.5 | 0.00 | 0.00 | 0.00 | 49 | 1015.5 |
| 20260903044802 | 26 | 137 | 6.4 | 16.1 | 0.00 | 0.00 | 0.00 | 48 | 1015.4 |
| 20260903044627 | 26 | 152 | 4.8 | 16.1 | 0.00 | 0.00 | 0.00 | 48 | 1015.4 |
| 20260903043802 | 26 | 171 | 6.4 | 14.5 | 0.00 | 0.00 | 0.00 | 48 | 1015.4 |
| 20260903043302 | 27 | 137 | 8.0 | 14.5 | 0.00 | 0.00 | 0.00 | 48 | 1015.3 |
| 20260903042801 | 26 | 114 | 6.4 | 14.5 | 0.00 | 0.00 | 0.00 | 48 | 1015.3 |
| 20260903042305 | 27 | 152 | 6.4 | 14.5 | 0.00 | 0.00 | 0.00 | 48 | 1015.3 |
| 20260903041801 | 27 | 123 | 6.4 | 14.5 | 0.00 | 0.00 | 0.00 | 48 | 1015.3 |
| 20260903041303 | 26 | 166 | 6.4 | 16.1 | 0.00 | 0.00 | 0.00 | 49 | 1015.4 |
| 20260903040802 | 26 | 165 | 6.4 | 16.1 | 0.00 | 0.00 | 0.00 | 49 | 1015.3 |
| 20260903040301 | 26 | 144 | 4.8 | 16.1 | 0.00 | 0.00 | 0.00 | 49 | 1015.3 |
| 20260903035957 | 27 | 161 | 4.8 | 11.3 | 0.00 | 0.00 | 0.00 | 48 | 1015.3 |
| 20260903035913 | 27 | 161 | 4.8 | 16.1 | 0.00 | 0.00 | 0.00 | 49 | 1015.3 |
| 20260903034801 | 27 | 155 | 4.8 | 11.3 | 0.00 | 0.00 | 0.00 | 48 | 1015.3 |
| 20260903034303 | 27 | 154 | 6.4 | 11.3 | 0.00 | 0.00 | 0.00 | 48 | 1015.3 |
| 20260903033803 | 27 | 155 | 3.2 | 14.5 | 0.00 | 0.00 | 0.00 | 47 | 1015.3 |
| 20260903033301 | 27 | 164 | 3.2 | 14.5 | 0.00 | 0.00 | 0.00 | 48 | 1015.4 |
| 20260903032950 | 27 | 158 | 6.4 | 14.5 | 0.00 | 0.00 | 0.00 | 48 | 1015.3 |
| 20260903032909 | 27 | 169 | 6.4 | 14.5 | 0.00 | 0.00 | 0.00 | 48 | 1015.4 |
| 20260903031803 | 27 | 164 | 4.8 | 11.3 | 0.00 | 0.00 | 0.00 | 47 | 1015.3 |
| 20260903031300 | 27 | 94 | 6.4 | 11.3 | 0.00 | 0.00 | 0.00 | 47 | 1015.2 |
| 20260903030801 | 27 | 111 | 4.8 | 14.5 | 0.00 | 0.00 | 0.00 | 47 | 1015.2 |
| 20260903030452 | 27 | 179 | 6.4 | 11.3 | 0.00 | 0.00 | 0.00 | 47 | 1015.1 |
| 20260903030406 | 27 | 168 | 6.4 | 14.5 | 0.00 | 0.00 | 0.00 | 47 | 1015.1 |
| 20260903025301 | 27 | 99 | 4.8 | 17.7 | 0.00 | 0.00 | 0.00 | 47 | 1014.9 |
| 20260903024801 | 27 | 148 | 6.4 | 17.7 | 0.00 | 0.00 | 0.00 | 47 | 1014.9 |
| 20260903024301 | 27 | 76 | 6.4 | 16.1 | 0.00 | 0.00 | 0.00 | 47 | 1014.9 |
| 20260903023802 | 27 | 110 | 8.0 | 14.5 | 0.00 | 0.00 | 0.00 | 47 | 1014.8 |
| 20260903023301 | 27 | 144 | 3.2 | 14.5 | 0.00 | 0.00 | 0.00 | 47 | 1014.7 |
| 20260903022801 | 27 | 140 | 6.4 | 14.5 | 0.00 | 0.00 | 0.00 | 47 | 1014.7 |
| 20260903022624 | 27 | 172 | 6.4 | 11.3 | 0.00 | 0.00 | 0.00 | 47 | 1014.7 |
| 20260903021801 | 27 | 155 | 6.4 | 11.3 | 0.00 | 0.00 | 0.00 | 46 | 1014.8 |
| 20260903021453 | 27 | 135 | 4.8 | 14.5 | 0.00 | 0.00 | 0.00 | 46 | 1014.6 |
| 20260903021409 | 27 | 149 | 6.4 | 14.5 | 0.00 | 0.00 | 0.00 | 46 | 1014.7 |
| 20260903020453 | 28 | 103 | 4.8 | 14.5 | 0.00 | 0.00 | 0.00 | 45 | 1014.6 |
| 20260903020411 | 27 | 154 | 6.4 | 11.3 | 0.00 | 0.00 | 0.00 | 46 | 1014.6 |
| 20260903015305 | 28 | 142 | 4.8 | 14.5 | 0.00 | 0.00 | 0.00 | 45 | 1014.6 |
| 20260903014803 | 28 | 148 | 6.4 | 9.7 | 0.00 | 0.00 | 0.00 | 45 | 1014.6 |
| 20260903014302 | 28 | 145 | 6.4 | 11.3 | 0.00 | 0.00 | 0.00 | 44 | 1014.6 |
| 20260903013801 | 28 | 168 | 4.8 | 11.3 | 0.00 | 0.00 | 0.00 | 44 | 1014.7 |
| 20260903013301 | 28 | 120 | 3.2 | 8.0 | 0.00 | 0.00 | 0.00 | 45 | 1014.7 |
| 20260903013124 | 28 | 135 | 0.0 | 8.0 | 0.00 | 0.00 | 0.00 | 44 | 1014.7 |
| 20260903012624 | 28 | 173 | 3.2 | 9.7 | 0.00 | 0.00 | 0.00 | 44 | 1014.9 |
| 20260903011801 | 28 | 142 | 6.4 | 9.7 | 0.00 | 0.00 | 0.00 | 44 | 1014.8 |
| 20260903011301 | 28 | 158 | 6.4 | 9.7 | 0.00 | 0.00 | 0.00 | 44 | 1014.8 |
| 20260903010801 | 28 | 179 | 3.2 | 11.3 | 0.00 | 0.00 | 0.00 | 44 | 1014.8 |
| 20260903010301 | 28 | 158 | 1.6 | 11.3 | 0.00 | 0.00 | 0.00 | 44 | 1014.9 |
| 20260903005953 | 28 | 148 | 3.2 | 11.3 | 0.00 | 0.00 | 0.00 | 44 | 1014.8 |
| 20260903005911 | 28 | 144 | 6.4 | 9.7 | 0.00 | 0.00 | 0.00 | 44 | 1014.9 |
| 20260903004802 | 29 | 125 | 4.8 | 14.5 | 0.00 | 0.00 | 0.00 | 45 | 1014.9 |
| 20260903004632 | 29 | 121 | 6.4 | 14.5 | 0.00 | 0.00 | 0.00 | 45 | 1014.9 |
| 20260903003802 | 29 | 133 | 8.0 | 16.1 | 0.00 | 0.00 | 0.00 | 45 | 1014.9 |
| 20260903003302 | 29 | 164 | 8.0 | 16.1 | 0.00 | 0.00 | 0.00 | 45 | 1015.1 |
| 20260903003131 | 30 | 151 | 6.4 | 19.3 | 0.00 | 0.00 | 0.00 | 44 | 1014.9 |
| 20260903002306 | 30 | 155 | 6.4 | 19.3 | 0.00 | 0.00 | 0.00 | 44 | 1014.9 |
| 20260903001802 | 30 | 158 | 6.4 | 19.3 | 0.00 | 0.00 | 0.00 | 45 | 1015.3 |
| 20260903001632 | 30 | 151 | 8.0 | 16.1 | 0.00 | 0.00 | 0.00 | 44 | 1015.3 |
| 20260903001133 | 30 | 173 | 9.7 | 17.7 | 0.00 | 0.00 | 0.00 | 44 | 1015.3 |
| 20260903000303 | 30 | 217 | 6.4 | 24.1 | 0.00 | 0.00 | 0.00 | 44 | 1015.3 |
| 20260902235802 | 30 | 118 | 12.9 | 24.1 | 0.00 | 0.00 | 0.00 | 42 | 1015.3 |
| 20260902235305 | 30 | 162 | 9.7 | 22.5 | 0.00 | 0.00 | 0.00 | 42 | 1015.2 |
| 20260902235122 | 30 | 189 | 8.0 | 20.9 | 0.00 | 0.00 | 0.00 | 42 | 1015.2 |
| 20260902234302 | 31 | 178 | 12.9 | 20.9 | 0.00 | 0.00 | 0.00 | 41 | 1015.2 |
| 20260902233801 | 31 | 175 | 9.7 | 25.7 | 0.00 | 0.00 | 0.00 | 39 | 1015.2 |
| 20260902233301 | 32 | 155 | 9.7 | 25.7 | 0.00 | 0.00 | 0.00 | 38 | 1015.2 |
| 20260902233128 | 32 | 116 | 12.9 | 20.9 | 0.00 | 0.00 | 0.00 | 36 | 1015.1 |
| 20260902232306 | 32 | 206 | 8.0 | 24.1 | 0.00 | 0.00 | 0.00 | 37 | 1014.8 |
| 20260902231802 | 32 | 89 | 11.3 | 24.1 | 0.00 | 0.00 | 0.00 | 37 | 1014.9 |
| 20260902231301 | 32 | 85 | 12.9 | 22.5 | 0.00 | 0.00 | 0.00 | 38 | 1014.9 |
| 20260902230802 | 32 | 104 | 8.0 | 22.5 | 0.00 | 0.00 | 0.00 | 37 | 1014.9 |
| 20260902230301 | 33 | 140 | 12.9 | 22.5 | 0.00 | 0.00 | 0.00 | 37 | 1014.9 |
| 20260902225802 | 33 | 94 | 8.0 | 24.1 | 0.00 | 0.00 | 0.00 | 37 | 1014.9 |
| 20260902225305 | 33 | 128 | 12.9 | 27.4 | 0.00 | 0.00 | 0.00 | 36 | 1014.9 |
| 20260902225125 | 33 | 134 | 11.3 | 27.4 | 0.00 | 0.00 | 0.00 | 37 | 1014.9 |
| 20260902224629 | 33 | 137 | 8.0 | 25.7 | 0.00 | 0.00 | 0.00 | 35 | 1014.8 |
| 20260902223801 | 34 | 133 | 8.0 | 27.4 | 0.00 | 0.00 | 0.00 | 36 | 1014.9 |
| 20260902223303 | 34 | 154 | 14.5 | 27.4 | 0.00 | 0.00 | 0.00 | 34 | 1014.9 |
| 20260902222801 | 34 | 176 | 8.0 | 24.1 | 0.00 | 0.00 | 0.00 | 34 | 1014.8 |
| 20260902222301 | 34 | 216 | 11.3 | 24.1 | 0.00 | 0.00 | 0.00 | 34 | 1014.9 |
| 20260902221804 | 33 | 164 | 8.0 | 20.9 | 0.00 | 0.00 | 0.00 | 36 | 1014.9 |
| 20260902221303 | 33 | 185 | 11.3 | 20.9 | 0.00 | 0.00 | 0.00 | 36 | 1015.1 |
| 20260902220805 | 32 | 147 | 9.7 | 19.3 | 0.00 | 0.00 | 0.00 | 38 | 1014.9 |
| 20260902220303 | 32 | 221 | 8.0 | 24.1 | 0.00 | 0.00 | 0.00 | 37 | 1015.2 |
| 20260902215801 | 32 | 210 | 11.3 | 24.1 | 0.00 | 0.00 | 0.00 | 36 | 1015.2 |
| 20260902215301 | 32 | 207 | 8.0 | 24.1 | 0.00 | 0.00 | 0.00 | 37 | 1015.2 |
| 20260902214806 | 33 | 137 | 12.9 | 24.1 | 0.00 | 0.00 | 0.00 | 35 | 1015.3 |
| 20260902214302 | 33 | 221 | 6.4 | 16.1 | 0.00 | 0.00 | 0.00 | 36 | 1015.4 |
| 20260902213801 | 33 | 203 | 8.0 | 20.9 | 0.00 | 0.00 | 0.00 | 35 | 1015.4 |
| 20260902213301 | 33 | 214 | 11.3 | 30.6 | 0.00 | 0.00 | 0.00 | 34 | 1015.3 |
| 20260902212948 | 35 | 195 | 9.7 | 27.4 | 0.00 | 0.00 | 0.00 | 37 | 1015.2 |
| 20260902212907 | 33 | 252 | 12.9 | 30.6 | 0.00 | 0.00 | 0.00 | 35 | 1015.3 |
| 20260902212124 | 35 | 149 | 6.4 | 17.7 | 0.00 | 0.00 | 0.00 | 38 | 1015.2 |
| 20260902211630 | 34 | 233 | 4.8 | 11.3 | 0.00 | 0.00 | 0.00 | 37 | 1015.1 |
| 20260902210801 | 34 | 159 | 6.4 | 11.3 | 0.00 | 0.00 | 0.00 | 39 | 1015.1 |
| 20260902210302 | 32 | 125 | 4.8 | 11.3 | 0.00 | 0.00 | 0.00 | 41 | 1015.3 |
| 20260902205802 | 32 | 219 | 3.2 | 19.3 | 0.00 | 0.00 | 0.00 | 45 | 1015.3 |
| 20260902205306 | 30 | 285 | 4.8 | 35.4 | 0.00 | 0.00 | 0.00 | 42 | 1015.4 |
| 20260902205130 | 30 | 180 | 14.5 | 35.4 | 0.00 | 0.00 | 0.00 | 49 | 1015.7 |
| 20260902204302 | 31 | 227 | 8.0 | 17.7 | 0.00 | 0.00 | 0.00 | 46 | 1015.7 |
| 20260902203801 | 32 | 234 | 9.7 | 22.5 | 0.00 | 0.00 | 0.00 | 38 | 1015.6 |
| 20260902203459 | 34 | 200 | 12.9 | 25.7 | 0.00 | 0.00 | 0.00 | 35 | 1015.7 |
| 20260902203414 | 33 | 164 | 9.7 | 22.5 | 0.00 | 0.00 | 0.00 | 36 | 1015.6 |
| 20260902202306 | 36 | 219 | 9.7 | 25.7 | 0.00 | 0.00 | 0.00 | 34 | 1015.8 |
| 20260902201801 | 36 | 145 | 12.9 | 22.5 | 0.00 | 0.00 | 0.00 | 34 | 1015.8 |
| 20260902201301 | 36 | 185 | 12.9 | 24.1 | 0.00 | 0.00 | 0.00 | 36 | 1015.8 |
| 20260902200801 | 35 | 238 | 12.9 | 24.1 | 0.00 | 0.00 | 0.00 | 35 | 1015.9 |
| 20260902200635 | 35 | 206 | 9.7 | 17.7 | 0.00 | 0.00 | 0.00 | 34 | 1015.9 |
| 20260902195953 | 34 | 164 | 9.7 | 19.3 | 0.00 | 0.00 | 0.00 | 37 | 1016.2 |
| 20260902195910 | 35 | 157 | 9.7 | 19.3 | 0.00 | 0.00 | 0.00 | 35 | 1016.1 |
| 20260902194802 | 32 | 217 | 0.0 | 1.6 | 0.00 | 0.00 | 0.00 | 43 | 1016.4 |
| 20260902194302 | 31 | 176 | 0.0 | 17.7 | 0.00 | 0.00 | 0.00 | 47 | 1016.4 |
| 20260902193802 | 30 | 248 | 1.6 | 19.3 | 0.00 | 0.00 | 0.00 | 47 | 1016.5 |
| 20260902193301 | 31 | 233 | 8.0 | 19.3 | 0.00 | 0.00 | 0.00 | 47 | 1016.7 |
| 20260902192802 | 32 | 180 | 9.7 | 22.5 | 0.00 | 0.00 | 0.00 | 40 | 1016.6 |
| 20260902192625 | 32 | 188 | 14.5 | 22.5 | 0.00 | 0.00 | 0.00 | 39 | 1016.7 |
| 20260902192024 | 32 | 195 | 9.7 | 20.9 | 0.00 | 0.00 | 0.00 | 38 | 1016.8 |
| 20260902191627 | 33 | 159 | 9.7 | 29.0 | 0.00 | 0.00 | 0.00 | 38 | 1016.7 |
| 20260902190801 | 33 | 168 | 12.9 | 29.0 | 0.00 | 0.00 | 0.00 | 36 | 1016.6 |
| 20260902190301 | 35 | 217 | 6.4 | 20.9 | 0.00 | 0.00 | 0.00 | 35 | 1016.7 |
| 20260902190126 | 35 | 210 | 6.4 | 20.9 | 0.00 | 0.00 | 0.00 | 37 | 1016.7 |
| 20260902185301 | 35 | 248 | 9.7 | 20.9 | 0.00 | 0.00 | 0.00 | 36 | 1016.8 |
| 20260902184802 | 35 | 169 | 9.7 | 25.7 | 0.00 | 0.00 | 0.00 | 36 | 1016.9 |
| 20260902184301 | 35 | 125 | 11.3 | 25.7 | 0.00 | 0.00 | 0.00 | 34 | 1017.3 |
| 20260902183801 | 35 | 149 | 8.0 | 20.9 | 0.00 | 0.00 | 0.00 | 35 | 1017.2 |
| 20260902183302 | 35 | 319 | 6.4 | 25.7 | 0.00 | 0.00 | 0.00 | 36 | 1017.5 |
| 20260902182801 | 35 | 133 | 11.3 | 25.7 | 0.00 | 0.00 | 0.00 | 35 | 1017.6 |
| 20260902182305 | 35 | 206 | 6.4 | 20.9 | 0.00 | 0.00 | 0.00 | 36 | 1017.6 |
| 20260902181801 | 35 | 111 | 11.3 | 20.9 | 0.00 | 0.00 | 0.00 | 38 | 1017.7 |
| 20260902181303 | 34 | 233 | 9.7 | 20.9 | 0.00 | 0.00 | 0.00 | 36 | 1018.0 |
| 20260902180801 | 35 | 197 | 9.7 | 20.9 | 0.00 | 0.00 | 0.00 | 38 | 1018.1 |
| 20260902180301 | 34 | 176 | 8.0 | 17.7 | 0.00 | 0.00 | 0.00 | 37 | 1018.1 |
| 20260902175801 | 34 | 135 | 9.7 | 17.7 | 0.00 | 0.00 | 0.00 | 39 | 1018.2 |
| 20260902175301 | 33 | 227 | 4.8 | 16.1 | 0.00 | 0.00 | 0.00 | 40 | 1018.2 |
| 20260902175011 | 32 | 173 | 9.7 | 22.5 | 0.00 | 0.00 | 0.00 | 40 | 1018.5 |
| 20260902174919 | 32 | 165 | 4.8 | 22.5 | 0.00 | 0.00 | 0.00 | 40 | 1018.4 |
| 20260902173802 | 32 | 168 | 9.7 | 22.5 | 0.00 | 0.00 | 0.00 | 41 | 1018.5 |
| 20260902173303 | 33 | 228 | 12.9 | 22.5 | 0.00 | 0.00 | 0.00 | 39 | 1018.5 |
| 20260902172952 | 33 | 217 | 9.7 | 22.5 | 0.00 | 0.00 | 0.00 | 40 | 1018.6 |
| 20260902172910 | 33 | 196 | 8.0 | 22.5 | 0.00 | 0.00 | 0.00 | 39 | 1018.6 |
| 20260902171802 | 33 | 183 | 8.0 | 22.5 | 0.00 | 0.00 | 0.00 | 40 | 1018.6 |
| 20260902171301 | 33 | 230 | 8.0 | 22.5 | 0.00 | 0.00 | 0.00 | 41 | 1018.6 |
| 20260902170801 | 32 | 216 | 4.8 | 19.3 | 0.00 | 0.00 | 0.00 | 41 | 1018.6 |
| 20260902170300 | 32 | 237 | 11.3 | 22.5 | 0.00 | 0.00 | 0.00 | 41 | 1018.8 |
| 20260902165800 | 32 | 164 | 8.0 | 25.7 | 0.00 | 0.00 | 0.00 | 41 | 1018.7 |
| 20260902165300 | 32 | 195 | 12.9 | 25.7 | 0.00 | 0.00 | 0.00 | 42 | 1019.0 |
| 20260902164800 | 32 | 155 | 6.4 | 17.7 | 0.00 | 0.00 | 0.00 | 43 | 1019.0 |
| 20260902164301 | 31 | 202 | 8.0 | 20.9 | 0.00 | 0.00 | 0.00 | 45 | 1019.0 |
| 20260902163801 | 31 | 240 | 12.9 | 20.9 | 0.00 | 0.00 | 0.00 | 43 | 1019.1 |
| 20260902163302 | 31 | 189 | 6.4 | 16.1 | 0.00 | 0.00 | 0.00 | 46 | 1019.0 |
| 20260902162802 | 31 | 147 | 9.7 | 22.5 | 0.00 | 0.00 | 0.00 | 44 | 1019.0 |
| 20260902162301 | 31 | 199 | 11.3 | 22.5 | 0.00 | 0.00 | 0.00 | 45 | 1019.1 |